Hourly Data Report for September 10, 2017

All times are specified in Local Standard Time (LST). Add 1 hour to adjust for Daylight Saving Time where and when it is observed.

PENTICTON A
BRITISH COLUMBIA

49°27'45.000" N
119°36'08.000" W
344.40 m
1126146
71889
YYF

Download Data

Hourly Data (September 2017)
Hourly Data Report for September 10, 2017
Temp Definition
°C
Dew Point Temp Definition
°C
Rel Hum Definition
%
Wind Dir Definition
10's deg

Wind Spd Definition
km/h
Visibility Definition
km
Stn Press Definition
kPa
Hmdx Definition


Wind Chill Definition


Weather Definition


TIME
00:00 Legend Double Dagger 15.2 6.8 57 34 7 24.1 97.82     LegendNANA
01:00 Legend Double Dagger 13.5 6.5 62 4 10 24.1 97.90     Mostly Cloudy
02:00 Legend Double Dagger 13.5 5.8 59 34 7 24.1 97.96     LegendNANA
03:00 Legend Double Dagger 11.3 5.5 67 32 10 24.1 98.01     LegendNANA
04:00 Legend Double Dagger 10.0 5.4 73 36 14 24.1 98.03     Mainly Clear
05:00 Legend Double Dagger 10.8 5.6 70 2 10 24.1 98.14     LegendNANA
06:00 Legend Double Dagger 9.7 5.3 74 36 2 24.1 98.16     LegendNANA
07:00 Legend Double Dagger 12.4 6.7 68 34 7 24.1 98.21     Mostly Cloudy
08:00 Legend Double Dagger 17.8 5.7 45 34 4 24.1 98.22     LegendNANA
09:00 Legend Double Dagger 19.1 5.9 42 2 8 24.1 98.23     LegendNANA
10:00 Legend Double Dagger 20.1 4.5 36 35 10 24.1 98.22     Mostly Cloudy
11:00 Legend Double Dagger 20.5 3.9 33 4 9 24.1 98.20     LegendNANA
12:00 Legend Double Dagger 22.3 3.4 29 19 11 24.1 98.18     LegendNANA
13:00 Legend Double Dagger 22.8 3.7 28 17 9 24.1 98.11     Mostly Cloudy
14:00 Legend Double Dagger 24.6 3.7 25 16 7 24.1 98.07     LegendNANA
15:00 Legend Double Dagger 25.2 4.2 25 19 11 24.1 98.00     LegendNANA
16:00 Legend Double Dagger 24.8 2.4 23 17 20 24.1 97.98     Mostly Cloudy
17:00 Legend Double Dagger 24.3 0.7 21 20 18 24.1 97.98     LegendNANA
18:00 Legend Double Dagger 23.6 -2.1 18 23 10 24.1 97.99     LegendNANA
19:00 Legend Double Dagger 20.0 6.2 40 21 9 24.1 98.02     Mostly Cloudy
20:00 Legend Double Dagger 19.6 6.0 41 18 8 24.1 98.04     LegendNANA
21:00 Legend Double Dagger 14.6 3.4 47 25 4 24.1 98.06     LegendNANA
22:00 Legend Double Dagger 12.1 5.8 65 6 5 24.1 98.07     Mostly Cloudy
23:00 Legend Double Dagger 11.5 2.8 55 36 2 24.1 98.12     LegendNANA

Notes on Data Quality.

Legend

  • E = Estimated
  • M = Missing
  • NA = Not Available
  • ‡ = Partner data that is not subject to review by the National Climate Archives
Date modified: